Voltar ao catálogo

STARLINK-31226

AtivoComunicaçõesVLEO
NORAD 58858·PAYLOAD·🇺🇸 United States

Lançado Jan 29, 2024 de Cape Canaveral Space Force Station

Loading…

Próximas Passagens (próximas 24 horas)

TLE

AtualizadoSource: CelesTrak SupGP

Época: Sep 14, 2026, 21:52 UTC

1 58858C 24019F   26257.91159722  .00029401  00000+0  10651-2 0  2575
2 58858  43.0024 260.4381 0001613 266.6468 316.6242 15.27557481    12

Acompanhe STARLINK-31226 em tempo real com AllMySat

Download on the App Store